Track GLOBALSTAR M083 now! 10-day predictions GLOBALSTAR M083 is classified as:
1 37739U 11033A 23088.11241862 -.00000082 00000-0 12078-3 0 9995 2 37739 51.9886 354.1225 0000377 101.8821 38.3199 12.62268974544427